Kenosha, WI

6:46 PM CST on February 23, 2017 (GMT -0600)
Kenosha Regional

Weather History for KENW - February, 2013

Change the Weather History Date:

Thursday, February 14, 2013

  Actual Average Record
Temperature  
Mean Temperature 32 °F -  
Max Temperature 37 °F 33 °F 57 °F (1954)
Min Temperature 26 °F 18 °F 0 °F (2015)
Degree Days  
Heating Degree Days 33    
Moisture  
Dew Point 28 °F    
Average Humidity 76    
Maximum Humidity 93    
Minimum Humidity 61    
Precipitation  
Precipitation 0.00 in - - ()
Sea Level Pressure  
Sea Level Pressure 29.74 in    
Wind  
Wind Speed 12 mph (WSW)    
Max Wind Speed 21 mph    
Max Gust Speed 31 mph    
Visibility 9 miles    
Events      
Averages and records for this station are not official NWS values.
T = Trace of Precipitation, MM = Missing Value Source: NWS Daily Summary

Daily Weather History Graph

Daily Weather History Graph

Search for Another Location

Airport or City:

Trip Planner

Search our weather history database for the weather conditions in past years. The results will help you decide how hot, cold, wet, or windy it might be!

Date:

Astronomy

Feb. 14, 2013 Rise Set
Actual Time 6:49 AM CST 5:22 PM CST
Civil Twilight 6:20 AM CST 5:51 PM CST
Nautical Twilight 5:47 AM CST 6:24 PM CST
Astronomical Twilight 5:14 AM CST 6:57 PM CST
Moon 8:44 AM CST (2/14) 10:33 PM CST (2/14)
Length of Visible Light 11h 31m
Length of Day
10h 33m
Waxing Crescent, 22% of the Moon is Illuminated
Feb 14
Waxing Crescent
Feb 17
First Quarter
Feb 25
Full
Mar 4
Last Quarter
Mar 11
New

Hourly Weather History & Observations

Time (CST) Temp. Windchill Dew Point Humidity Pressure Visibility Wind Dir Wind Speed Gust Speed Precip Events Conditions
12:53 AM 35.1 °F 28.6 °F 28.9 °F 78% 29.71 in 7.0 mi South 8.1 mph - N/A   Overcast
1:53 AM 35.1 °F 31.0 °F 30.0 °F 82% 29.70 in 7.0 mi South 4.6 mph - N/A   Overcast
2:53 AM 35.1 °F 30.1 °F 28.9 °F 78% 29.67 in 7.0 mi South 5.8 mph - N/A   Overcast
3:53 AM 35.1 °F 28.6 °F 30.0 °F 82% 29.63 in 7.0 mi South 8.1 mph - 0.00 in   Overcast
4:53 AM 37.0 °F 29.3 °F 30.0 °F 76% 29.62 in 10.0 mi South 11.5 mph - N/A   Overcast
5:53 AM 36.0 °F 27.5 °F 28.9 °F 76% 29.61 in 10.0 mi SSW 12.7 mph - N/A   Scattered Clouds
6:53 AM 35.1 °F 27.4 °F 28.9 °F 78% 29.61 in 10.0 mi SW 10.4 mph - N/A   Clear
7:53 AM 37.0 °F 27.7 °F 30.0 °F 76% 29.63 in 10.0 mi WSW 16.1 mph 23.0 mph N/A   Mostly Cloudy
8:53 AM 36.0 °F 26.7 °F 30.0 °F 79% 29.63 in 10.0 mi WSW 15.0 mph - N/A   Overcast
9:36 AM 37.4 °F 27.8 °F 30.2 °F 75% 29.61 in 10.0 mi WSW 17.3 mph - N/A   Overcast
9:53 AM 37.0 °F 27.0 °F 30.9 °F 79% 29.64 in 10.0 mi WSW 18.4 mph 24.2 mph N/A   Overcast
10:34 AM 35.6 °F 24.5 °F 30.2 °F 81% 29.63 in 4.0 mi WSW 20.7 mph 28.8 mph N/A   Haze
10:53 AM 36.0 °F 26.3 °F 32.0 °F 86% 29.66 in 4.0 mi WSW 16.1 mph - 0.00 in   Light Drizzle
11:10 AM 35.6 °F 25.2 °F 32.0 °F 87% 29.64 in 2.5 mi WSW 18.4 mph - 0.00 in   Light Drizzle
11:24 AM 35.6 °F 26.2 °F 33.8 °F 93% 29.64 in 4.0 mi West 15.0 mph - 0.00 in   Light Drizzle
11:53 AM 36.0 °F 26.0 °F 32.0 °F 86% 29.67 in 10.0 mi West 17.3 mph - 0.00 in   Overcast
12:38 PM 37.4 °F 27.5 °F 30.2 °F 75% 29.65 in 10.0 mi West 18.4 mph 27.6 mph N/A   Overcast
12:53 PM 36.0 °F 26.3 °F 28.9 °F 76% 29.69 in 10.0 mi WNW 16.1 mph 31.1 mph N/A   Overcast
1:53 PM 35.1 °F 24.5 °F 28.0 °F 76% 29.73 in 10.0 mi WNW 18.4 mph 26.5 mph N/A   Overcast
2:53 PM 35.1 °F 24.5 °F 27.0 °F 72% 29.77 in 10.0 mi WNW 18.4 mph 31.1 mph N/A   Overcast
3:53 PM 34.0 °F 23.0 °F 24.1 °F 67% 29.83 in 10.0 mi WNW 18.4 mph 28.8 mph N/A   Overcast
4:53 PM 34.0 °F 24.2 °F 24.1 °F 67% 29.87 in 10.0 mi NW 15.0 mph 19.6 mph N/A   Overcast
5:53 PM 33.1 °F 25.5 °F 24.1 °F 70% 29.90 in 10.0 mi WNW 9.2 mph - N/A   Overcast
6:53 PM 33.1 °F 24.9 °F 21.9 °F 64% 29.93 in 10.0 mi WNW 10.4 mph - N/A   Overcast
7:53 PM 33.1 °F 25.5 °F 21.9 °F 64% 29.94 in 10.0 mi WNW 9.2 mph - N/A   Overcast
8:53 PM 33.1 °F 26.1 °F 21.0 °F 61% 29.96 in 10.0 mi WNW 8.1 mph - N/A   Overcast
9:53 PM 30.0 °F 24.1 °F 21.0 °F 69% 29.96 in 10.0 mi West 5.8 mph - N/A   Mostly Cloudy
10:53 PM 27.0 °F 21.6 °F 19.9 °F 75% 29.97 in 10.0 mi West 4.6 mph - N/A   Mostly Cloudy
11:53 PM 26.1 °F 19.4 °F 19.0 °F 75% 29.98 in 10.0 mi West 5.8 mph - N/A   Clear